LZ3SV-3 Weather Reports


time (UTC)temp
C
wind
direction
speed
KPH
gust
KPH
rain 1hr
cm
rain 24hr
cm
rain mn
cm
humidity
%
barometer
mb
20260508013141 12 0.0 0.0 0.00 0.00 0.00 100 990.7
20260508012141 13 0.0 0.0 0.00 0.00 0.00 100 990.7
20260508011141 13 0.0 0.0 0.00 0.00 0.00 100 990.6
20260508010141 13 0.0 0.0 0.00 0.00 0.00 100 990.7
20260508005141 13 0.0 0.0 0.00 0.00 0.00 100 990.6
20260508003141 13 0.0 0.0 0.00 0.00 0.00 100 990.7
20260508001141 14 0.0 0.0 0.00 0.00 0.00 100 990.8
20260508000141 14 0.0 0.0 0.00 0.00 0.00 100 990.8
20260507235141 14 0.0 0.0 0.00 0.00 0.00 100 990.7
20260507234141 14 0.0 0.0 0.00 0.00 0.00 100 990.9
20260507233141 15 0.0 0.0 0.00 0.00 0.00 100 990.9
20260507232141 15 0.0 0.0 0.00 0.00 0.00 100 990.8
20260507231141 15 0.0 0.0 0.00 0.00 0.00 100 990.6
20260507230141 15 0.0 0.0 0.00 0.00 0.00 100 990.6
20260507224141 15 0.0 0.0 0.00 0.00 0.00 100 990.6
20260507221141 16 0.0 0.0 0.00 0.00 0.00 100 990.6
20260507220140 16 0.0 0.0 0.00 0.00 0.00 97 990.6
20260507215140 16 0.0 0.0 0.00 0.00 0.00 96 990.5
20260507214140 16 0.0 0.0 0.00 0.00 0.00 93 990.5
20260507213141 17 0.0 0.0 0.00 0.00 0.00 86 990.4
20260507212141 18 0.0 0.0 0.00 0.00 0.00 84 990.4
20260507211141 18 0.0 0.0 0.00 0.00 0.00 80 990.3
20260507210142 18 0.0 0.0 0.00 0.00 0.00 77 990.3
20260507205142 18 0.0 0.0 0.00 0.00 0.00 73 990.3
20260507204140 18 0.0 0.0 0.00 0.00 0.00 72 990.4
20260507203142 18 0.0 0.0 0.00 0.00 0.00 71 990.3
20260507195138 20 0.0 0.0 0.00 0.00 0.00 62 990.2
20260507194138 20 0.0 0.0 0.00 0.00 0.00 62 990.1
20260507193139 20 0.0 0.0 0.00 0.00 0.00 61 990.2
20260507192138 20 0.0 0.0 0.00 0.00 0.00 61 990.2
20260507191138 20 0.0 0.0 0.00 0.00 0.00 62 990.2
20260507190138 20 0.0 0.0 0.00 0.00 0.00 68 990.2
20260507184139 21 0.0 0.0 0.00 0.00 0.00 69 989.8
20260507183138 21 0.0 0.0 0.00 0.00 0.00 67 989.9
20260507182140 21 0.0 0.0 0.00 0.00 0.00 68 989.9
20260507180138 21 0.0 0.0 0.00 0.00 0.00 65 989.6
20260507175140 21 0.0 0.0 0.00 0.00 0.00 64 989.6
20260507174138 21 0.0 0.0 0.00 0.00 0.00 64 989.5
20260507173138 21 0.0 0.0 0.00 0.00 0.00 64 989.4
20260507172138 21 0.0 0.0 0.00 0.00 0.00 64 989.4
20260507171138 21 0.0 0.0 0.00 0.00 0.00 64 989.5
20260507170139 21 0.0 0.0 0.00 0.00 0.00 63 989.4
20260507165138 22 0.0 0.0 0.00 0.00 0.00 62 989.5
20260507164137 21 0.0 0.0 0.00 0.00 0.00 63 989.3
20260507163138 22 0.0 0.0 0.00 0.00 0.00 62 989.4
20260507161137 23 0.0 0.0 0.00 0.00 0.00 60 989.2
20260507154137 23 0.0 0.0 0.00 0.00 0.00 56 989.1
20260507153137 23 0.0 0.0 0.00 0.00 0.00 53 989.2
20260507152137 24 0.0 0.0 0.00 0.00 0.00 44 989.1
20260507150137 24 0.0 0.0 0.00 0.00 0.00 43 989.2
20260507145137 25 0.0 0.0 0.00 0.00 0.00 42 989.3
20260507144140 25 0.0 0.0 0.00 0.00 0.00 40 989.2
20260507143137 26 0.0 0.0 0.00 0.00 0.00 39 989.3
20260507141137 27 0.0 0.0 0.00 0.00 0.00 36 989.3
20260507140138 28 0.0 0.0 0.00 0.00 0.00 34 989.3
20260507135137 29 0.0 0.0 0.00 0.00 0.00 33 989.5
20260507134136 31 0.0 0.0 0.00 0.00 0.00 40 989.3
20260507132137 30 0.0 0.0 0.00 0.00 0.00 39 989.4
20260507131136 31 0.0 0.0 0.00 0.00 0.00 38 989.5
20260507130136 31 0.0 0.0 0.00 0.00 0.00 37 989.5
20260507125137 30 0.0 0.0 0.00 0.00 0.00 39 989.5
20260507124136 32 0.0 0.0 0.00 0.00 0.00 36 989.6
20260507123137 28 0.0 0.0 0.00 0.00 0.00 41 989.8
20260507122137 28 0.0 0.0 0.00 0.00 0.00 39 989.9
20260507121137 28 0.0 0.0 0.00 0.00 0.00 39 990.0
20260507120136 30 0.0 0.0 0.00 0.00 0.00 37 990.1
20260507115136 31 0.0 0.0 0.00 0.00 0.00 34 990.2
20260507114136 32 0.0 0.0 0.00 0.00 0.00 32 990.4
20260507113136 31 0.0 0.0 0.00 0.00 0.00 34 990.4
20260507110136 29 0.0 0.0 0.00 0.00 0.00 35 990.8
20260507104136 28 0.0 0.0 0.00 0.00 0.00 39 991.0
20260507103136 27 0.0 0.0 0.00 0.00 0.00 41 990.9
20260507101136 25 0.0 0.0 0.00 0.00 0.00 44 991.2
20260507100136 25 0.0 0.0 0.00 0.00 0.00 45 991.2
20260507094137 23 0.0 0.0 0.00 0.00 0.00 47 991.4
20260507093136 23 0.0 0.0 0.00 0.00 0.00 48 991.5
20260507092136 22 0.0 0.0 0.00 0.00 0.00 50 991.6
20260507091136 21 0.0 0.0 0.00 0.00 0.00 52 991.6
20260507085136 21 0.0 0.0 0.00 0.00 0.00 52 991.8
20260507083136 20 0.0 0.0 0.00 0.00 0.00 56 991.8
20260507082136 19 0.0 0.0 0.00 0.00 0.00 58 991.9
20260507081135 18 0.0 0.0 0.00 0.00 0.00 56 992.0
20260507080136 18 0.0 0.0 0.00 0.00 0.00 56 991.9
20260507075136 18 0.0 0.0 0.00 0.00 0.00 57 992.1
20260507074136 17 0.0 0.0 0.00 0.00 0.00 58 992.0
20260507073135 17 0.0 0.0 0.00 0.00 0.00 60 991.9
20260507072135 16 0.0 0.0 0.00 0.00 0.00 62 992.0
20260507071135 16 0.0 0.0 0.00 0.00 0.00 64 991.9
20260507070136 16 0.0 0.0 0.00 0.00 0.00 67 992.0
20260507065135 15 0.0 0.0 0.00 0.00 0.00 71 992.1
20260507064135 15 0.0 0.0 0.00 0.00 0.00 74 992.1
20260507063136 15 0.0 0.0 0.00 0.00 0.00 76 992.2
20260507061135 14 0.0 0.0 0.00 0.00 0.00 75 992.1
20260507060135 13 0.0 0.0 0.00 0.00 0.00 76 992.3
20260507055135 13 0.0 0.0 0.00 0.00 0.00 78 992.1
20260507054135 12 0.0 0.0 0.00 0.00 0.00 80 992.1
20260507053135 12 0.0 0.0 0.00 0.00 0.00 84 992.0
20260507052135 12 0.0 0.0 0.00 0.00 0.00 84 992.0
20260507051135 11 0.0 0.0 0.00 0.00 0.00 86 992.0
20260507050135 11 0.0 0.0 0.00 0.00 0.00 89 991.8
20260507045135 11 0.0 0.0 0.00 0.00 0.00 88 991.8
20260507044136 10 0.0 0.0 0.00 0.00 0.00 91 991.7
20260507043135 10 0.0 0.0 0.00 0.00 0.00 94 991.6
20260507042136 10 0.0 0.0 0.00 0.00 0.00 95 991.6
20260507041135 10 0.0 0.0 0.00 0.00 0.00 99 991.4
20260507040135 9 0.0 0.0 0.00 0.00 0.00 99 991.4
20260507035135 9 0.0 0.0 0.00 0.00 0.00 99 991.1
20260507033135 9 0.0 0.0 0.00 0.00 0.00 98 991.2
20260507032135 9 0.0 0.0 0.00 0.00 0.00 98 990.9
20260507031136 9 0.0 0.0 0.00 0.00 0.00 98 990.9
20260507030135 9 0.0 0.0 0.00 0.00 0.00 98 991.0
20260507025135 9 0.0 0.0 0.00 0.00 0.00 98 990.8
20260507024135 10 0.0 0.0 0.00 0.00 0.00 97 990.7
20260507023135 10 0.0 0.0 0.00 0.00 0.00 95 990.6
20260507021135 10 0.0 0.0 0.00 0.00 0.00 96 990.5
20260507020135 10 0.0 0.0 0.00 0.00 0.00 98 990.6
20260507015135 10 0.0 0.0 0.00 0.00 0.00 96 990.4
20260507014134 10 0.0 0.0 0.00 0.00 0.00 95 990.6